Ketchikan, AK

10:51 PM AKDT on September 22, 2018 (GMT -0800)
Ketchikan International

Weather History for PAKT - March, 2018

Change the Weather History Date:

Sunday, March 18, 2018

  Actual Average Record
Temperature  
Mean Temperature 41 °F 38 °F  
Max Temperature 49 °F 44 °F 53 °F (1966)
Min Temperature 33 °F 32 °F 15 °F (2006)
Degree Days  
Heating Degree Days 24 27  
Month to date heating degree days 460 505  
Moisture  
Dew Point 38 °F    
Average Humidity 87    
Maximum Humidity 96    
Minimum Humidity 66    
Precipitation  
Precipitation T in 0.35 in 2.00 in (1962)
Month to date precipitation 3.74 6.36  
Year to date precipitation 24.17 32.29  
Sea Level Pressure  
Sea Level Pressure 30.16 in    
Wind  
Wind Speed 6 mph (SE)    
Max Wind Speed 14 mph    
Max Gust Speed 15 mph    
Visibility 10 miles    
Events Rain    
T = Trace of Precipitation, MM = Missing Value Source: NWS Daily Summary

Daily Weather History Graph

Daily Weather History Graph

Search for Another Location

Airport or City:

Astronomy

Mar. 18, 2018 Rise Set
Actual Time 6:53 AM AKDT 6:57 PM AKDT
Civil Twilight 6:17 AM AKDT 7:33 PM AKDT
Nautical Twilight 5:34 AM AKDT 8:16 PM AKDT
Astronomical Twilight 4:48 AM AKDT 9:02 PM AKDT
Moon 7:48 AM AKDT (3/18) 8:32 PM AKDT (3/18)
Length of Visible Light 13h 16m
Length of Day
12h 03m
New Moon, 2% of the Moon is Illuminated
Mar 18
New Moon
Mar 24
First Quarter
Mar 31
Full
Apr 7
Last Quarter
Apr 15
New

Hourly Weather History & Observations

Time (AKDT) Temp. Windchill Dew Point Humidity Pressure Visibility Wind Dir Wind Speed Gust Speed Precip Events Conditions
12:53 AM 35.1 °F - 33.1 °F 92% 30.04 in 10.0 mi Calm Calm - N/A   Partly Cloudy
1:53 AM 35.1 °F - 34.0 °F 96% 30.05 in 10.0 mi Calm Calm - N/A   Partly Cloudy
2:53 AM 35.1 °F - 34.0 °F 96% 30.07 in 10.0 mi Calm Calm - N/A   Scattered Clouds
3:53 AM 36.0 °F - 34.0 °F 93% 30.08 in 10.0 mi Calm Calm - N/A   Overcast
4:53 AM 37.0 °F - 35.1 °F 93% 30.09 in 10.0 mi Calm Calm - N/A   Overcast
5:53 AM 37.0 °F - 35.1 °F 93% 30.09 in 10.0 mi Calm Calm - N/A   Overcast
6:02 AM 37.0 °F - 35.1 °F 93% 30.09 in 10.0 mi Calm Calm - N/A   Overcast
6:53 AM 39.0 °F - 37.0 °F 93% 30.11 in 10.0 mi Calm Calm - N/A   Overcast
7:53 AM 39.2 °F 35.0 °F 37.4 °F 93% 30.12 in 10.0 mi SE 5.8 mph - N/A   Overcast
8:53 AM 39.2 °F 33.6 °F 37.4 °F 93% 30.14 in 10.0 mi ESE 8.1 mph - N/A   Overcast
9:53 AM 42.8 °F 39.3 °F 39.2 °F 87% 30.16 in 10.0 mi SE 5.8 mph - N/A   Overcast
10:53 AM 42.8 °F 38.0 °F 39.2 °F 87% 30.17 in 10.0 mi SE 8.1 mph - N/A   Overcast
11:53 AM 44.6 °F 39.7 °F 39.2 °F 81% 30.19 in 10.0 mi SE 9.2 mph - N/A   Overcast
12:53 PM 46.4 °F 41.1 °F 39.2 °F 76% 30.20 in 10.0 mi SE 11.5 mph - N/A   Overcast
1:53 PM 46.4 °F 40.7 °F 39.2 °F 76% 30.19 in 10.0 mi ESE 12.7 mph - N/A   Mostly Cloudy
2:53 PM 48.2 °F - 39.2 °F 71% 30.19 in 10.0 mi ESE 11.5 mph - N/A   Mostly Cloudy
3:53 PM 48.2 °F - 37.4 °F 66% 30.19 in 10.0 mi ESE 11.5 mph - N/A   Scattered Clouds
4:53 PM 46.4 °F 41.1 °F 41.0 °F 81% 30.20 in 10.0 mi SE 11.5 mph - N/A   Scattered Clouds
5:53 PM 46.4 °F 40.7 °F 42.8 °F 87% 30.20 in 10.0 mi SE 12.7 mph - N/A   Partly Cloudy
6:53 PM 43.0 °F 39.5 °F 39.9 °F 89% 30.20 in 10.0 mi SE 5.8 mph - N/A   Scattered Clouds
7:53 PM 44.1 °F 39.5 °F 41.0 °F 89% 30.21 in 10.0 mi SSE 8.1 mph - N/A   Overcast
8:53 PM 44.1 °F 41.5 °F 39.9 °F 85% 30.22 in 10.0 mi SSE 4.6 mph - N/A   Overcast
9:19 PM 44.1 °F - 39.9 °F 85% 30.22 in 10.0 mi Calm Calm - N/A   Overcast
9:53 PM 43.0 °F - 39.9 °F 89% 30.22 in 10.0 mi Calm Calm - N/A   Overcast
10:06 PM 43.0 °F - 39.9 °F 89% 30.22 in 10.0 mi Calm Calm - N/A   Overcast
10:37 PM 43.0 °F - 39.9 °F 89% 30.22 in 10.0 mi Calm Calm - N/A   Overcast
10:53 PM 43.0 °F 39.5 °F 39.0 °F 86% 30.22 in 10.0 mi NNW 5.8 mph - N/A   Overcast
11:53 PM 43.0 °F 38.8 °F 37.9 °F 82% 30.23 in 10.0 mi NW 6.9 mph - 0.00 in Rain Light Rain